EZY58E EGCC-EHAM

Flight info

Callsign EZY58E
Flight time 1h 0m
Altitude 33000
Route SONEX L975 DESIG L603 LAMSO
Aircraft A319/M-SDE3FGHIRWY/LB1

Departure

Time 2026-05-04 14:56
Airport Manchester Airport (EGCC)

Arrival

Time 2026-05-04 15:56
Airport Amsterdam Airport Schiphol (EHAM)
Time Latitude Longitude Altitude Speed Heading
2026-05-04 14:26 53.36583 -2.27979 255 ft 0 kts 45°
2026-05-04 14:28 53.36583 -2.27980 255 ft 0 kts 45°
2026-05-04 14:43 53.36577 -2.27989 255 ft 4 kts 45°
2026-05-04 14:43 53.36558 -2.28020 255 ft 3 kts 45°
2026-05-04 14:44 53.36544 -2.28046 255 ft 4 kts 61°
2026-05-04 14:44 53.36539 -2.28082 255 ft 4 kts 124°
2026-05-04 14:44 53.36536 -2.28079 255 ft 4 kts 135°
2026-05-04 14:44 53.36517 -2.28047 255 ft 4 kts 135°
2026-05-04 14:45 53.36506 -2.28030 255 ft 0 kts 135°
2026-05-04 14:47 53.36498 -2.28017 255 ft 4 kts 140°
2026-05-04 14:47 53.36463 -2.27983 255 ft 8 kts 142°
2026-05-04 14:48 53.36410 -2.27923 255 ft 11 kts 172°
2026-05-04 14:48 53.36342 -2.28017 255 ft 14 kts 223°
2026-05-04 14:48 53.36304 -2.28055 255 ft 4 kts 201°
2026-05-04 14:48 53.36273 -2.28069 255 ft 6 kts 191°
2026-05-04 14:49 53.36215 -2.28062 255 ft 11 kts 149°
2026-05-04 14:49 53.36139 -2.27950 255 ft 18 kts 141°
2026-05-04 14:49 53.36049 -2.27835 255 ft 15 kts 141°
2026-05-04 14:49 53.35938 -2.27728 255 ft 22 kts 174°
2026-05-04 14:50 53.35775 -2.27745 249 ft 23 kts 186°
2026-05-04 14:50 53.35678 -2.27761 244 ft 12 kts 182°
2026-05-04 14:50 53.35616 -2.27714 242 ft 8 kts 112°
2026-05-04 14:50 53.35639 -2.27619 245 ft 12 kts 54°
2026-05-04 14:51 53.35590 -2.27485 245 ft 12 kts 142°
2026-05-04 14:51 53.35579 -2.27469 245 ft 0 kts 137°
2026-05-04 14:52 53.35563 -2.27446 246 ft 9 kts 140°
2026-05-04 14:52 53.35481 -2.27336 249 ft 21 kts 141°
2026-05-04 14:53 53.35341 -2.27190 244 ft 26 kts 176°
2026-05-04 14:53 53.35168 -2.27245 231 ft 11 kts 192°
2026-05-04 14:53 53.35161 -2.27247 231 ft 0 kts 193°
2026-05-04 14:54 53.35159 -2.27248 231 ft 3 kts 193°
2026-05-04 14:54 53.35083 -2.27274 228 ft 19 kts 192°
2026-05-04 14:55 53.34963 -2.27415 225 ft 23 kts 231°
2026-05-04 14:55 53.34821 -2.27710 223 ft 59 kts 231°
2026-05-04 14:55 53.34388 -2.28604 225 ft 135 kts 231°
2026-05-04 14:55 53.33756 -2.29916 792 ft 144 kts 231°
2026-05-04 14:56 53.33139 -2.31228 1635 ft 143 kts 232°
2026-05-04 14:56 53.32509 -2.32585 2262 ft 157 kts 232°
2026-05-04 14:56 53.31845 -2.34197 2765 ft 180 kts 243°
2026-05-04 14:56 53.31432 -2.36307 3218 ft 204 kts 262°
2026-05-04 14:57 53.31497 -2.38805 3760 ft 229 kts 284°
2026-05-04 14:57 53.32215 -2.41327 4383 ft 253 kts 309°
2026-05-04 14:57 53.33609 -2.43200 5291 ft 264 kts 334°
2026-05-04 14:57 53.35404 -2.43902 6335 ft 271 kts 359°
2026-05-04 14:58 53.37304 -2.43798 7358 ft 275 kts
2026-05-04 14:58 53.39231 -2.43677 8397 ft 279 kts 358°
2026-05-04 14:58 53.41145 -2.44326 9409 ft 283 kts 342°
2026-05-04 14:58 53.43036 -2.45297 10420 ft 287 kts 345°
2026-05-04 14:59 53.45038 -2.45429 11302 ft 294 kts 10°
2026-05-04 14:59 53.46927 -2.44065 12191 ft 302 kts 36°
2026-05-04 14:59 53.48818 -2.37895 13959 ft 313 kts 90°
2026-05-04 15:00 53.48527 -2.34271 14774 ft 315 kts 100°
2026-05-04 15:00 53.48451 -2.30620 15514 ft 323 kts 83°
2026-05-04 15:00 53.49017 -2.26773 15737 ft 348 kts 73°
2026-05-04 15:01 53.50153 -2.18505 16700 ft 373 kts 82°
2026-05-04 15:01 53.50472 -2.14165 17449 ft 377 kts 84°
2026-05-04 15:01 53.50760 -2.09827 18196 ft 380 kts 83°
2026-05-04 15:01 53.51089 -2.05394 18877 ft 384 kts 82°
2026-05-04 15:02 53.51479 -2.00924 19552 ft 387 kts 81°
2026-05-04 15:02 53.51919 -1.96456 20272 ft 389 kts 80°
2026-05-04 15:02 53.52283 -1.91936 20976 ft 391 kts 86°
2026-05-04 15:02 53.52206 -1.87365 21678 ft 393 kts 97°
2026-05-04 15:03 53.51629 -1.82855 22360 ft 396 kts 106°
2026-05-04 15:03 53.50846 -1.78413 23033 ft 398 kts 106°
2026-05-04 15:03 53.50051 -1.73946 23668 ft 400 kts 106°
2026-05-04 15:03 53.49250 -1.69457 24205 ft 403 kts 105°
2026-05-04 15:04 53.48441 -1.64931 24719 ft 405 kts 105°
2026-05-04 15:04 53.47648 -1.60485 25219 ft 407 kts 105°
2026-05-04 15:04 53.46836 -1.55916 25716 ft 410 kts 105°
2026-05-04 15:04 53.46021 -1.51325 26202 ft 412 kts 105°
2026-05-04 15:05 53.45194 -1.46704 26680 ft 415 kts 105°
2026-05-04 15:05 53.44356 -1.42053 27166 ft 418 kts 105°
2026-05-04 15:05 53.43511 -1.37380 27648 ft 420 kts 105°
2026-05-04 15:05 53.42659 -1.32681 28124 ft 422 kts 105°
2026-05-04 15:06 53.41801 -1.27952 28590 ft 425 kts 105°
2026-05-04 15:06 53.40940 -1.23205 29042 ft 427 kts 105°
2026-05-04 15:06 53.40081 -1.18479 29473 ft 430 kts 104°
2026-05-04 15:07 53.38330 -1.08841 30282 ft 434 kts 104°
2026-05-04 15:07 53.37443 -1.03990 30640 ft 437 kts 104°
2026-05-04 15:07 53.36549 -0.99118 30967 ft 439 kts 105°
2026-05-04 15:07 53.35643 -0.94216 31275 ft 442 kts 105°
2026-05-04 15:08 53.34733 -0.89306 31719 ft 441 kts 105°
2026-05-04 15:08 53.33825 -0.84434 32206 ft 440 kts 105°
2026-05-04 15:08 53.32911 -0.79541 32691 ft 438 kts 105°
2026-05-04 15:08 53.31999 -0.74670 33002 ft 438 kts 105°
2026-05-04 15:09 53.31095 -0.69833 33061 ft 431 kts 105°
2026-05-04 15:09 53.29316 -0.60327 33058 ft 427 kts 105°
2026-05-04 15:10 53.26650 -0.46217 33058 ft 426 kts 106°
2026-05-04 15:11 53.23955 -0.32066 33052 ft 428 kts 107°
2026-05-04 15:11 53.22149 -0.22589 33047 ft 428 kts 107°
2026-05-04 15:12 53.20338 -0.13120 33047 ft 428 kts 107°
2026-05-04 15:12 53.18509 -0.03663 33043 ft 428 kts 107°
2026-05-04 15:13 53.16668 0.05797 33035 ft 430 kts 108°
2026-05-04 15:13 53.14819 0.15286 33032 ft 431 kts 108°
2026-05-04 15:14 53.12956 0.24796 33034 ft 432 kts 108°
2026-05-04 15:14 53.11084 0.34313 33035 ft 433 kts 108°
2026-05-04 15:15 53.09191 0.43835 33035 ft 433 kts 108°
2026-05-04 15:15 53.07288 0.53372 33036 ft 434 kts 109°
2026-05-04 15:16 53.04439 0.67645 33031 ft 436 kts 109°
2026-05-04 15:17 53.01542 0.82024 33030 ft 438 kts 109°
2026-05-04 15:17 52.98619 0.96413 33025 ft 440 kts 110°
2026-05-04 15:18 52.97150 1.06299 33016 ft 443 kts 102°
2026-05-04 15:19 52.95425 1.21352 33021 ft 446 kts 102°
2026-05-04 15:19 52.93654 1.36534 33025 ft 448 kts 103°
2026-05-04 15:20 52.92446 1.46672 33025 ft 448 kts 103°
2026-05-04 15:20 52.91241 1.56800 33019 ft 449 kts 103°
2026-05-04 15:21 52.90025 1.66969 33018 ft 450 kts 103°
2026-05-04 15:22 52.88173 1.82232 33017 ft 451 kts 103°
2026-05-04 15:22 52.86303 1.97524 33023 ft 452 kts 104°
2026-05-04 15:23 52.85051 2.07663 33014 ft 453 kts 104°
2026-05-04 15:23 52.83780 2.17893 33012 ft 454 kts 104°
2026-05-04 15:24 52.81188 2.38506 33032 ft 465 kts 104°
2026-05-04 15:25 52.79849 2.48996 33030 ft 467 kts 104°
2026-05-04 15:26 52.77828 2.64766 33026 ft 469 kts 105°
2026-05-04 15:26 52.75186 2.80210 31873 ft 461 kts 110°
2026-05-04 15:27 52.74219 2.85229 31225 ft 458 kts 111°
2026-05-04 15:27 52.72598 2.93543 30176 ft 458 kts 111°
2026-05-04 15:28 52.70677 3.03550 28247 ft 457 kts 111°
2026-05-04 15:28 52.69731 3.08531 27307 ft 453 kts 111°
2026-05-04 15:28 52.67132 3.17724 25398 ft 436 kts 122°
2026-05-04 15:29 52.65660 3.22117 24716 ft 438 kts 122°
2026-05-04 15:30 52.59790 3.39412 21368 ft 421 kts 121°
2026-05-04 15:30 52.55630 3.51652 18880 ft 397 kts 121°
2026-05-04 15:31 52.52974 3.59431 17120 ft 384 kts 121°
2026-05-04 15:31 52.51671 3.63226 16193 ft 379 kts 121°
2026-05-04 15:32 52.47853 3.74332 13521 ft 366 kts 120°
2026-05-04 15:32 52.45384 3.81518 11637 ft 356 kts 121°
2026-05-04 15:33 52.42993 3.88432 9923 ft 345 kts 120°
2026-05-04 15:34 52.39775 3.97717 8971 ft 290 kts 121°
2026-05-04 15:34 52.38786 4.00557 8390 ft 284 kts 121°
2026-05-04 15:34 52.36849 4.06110 7185 ft 278 kts 121°
2026-05-04 15:35 52.34931 4.11596 6991 ft 279 kts 121°
2026-05-04 15:35 52.33967 4.14347 6910 ft 277 kts 121°
2026-05-04 15:35 52.33011 4.17073 6457 ft 276 kts 121°
2026-05-04 15:36 52.31110 4.22511 5557 ft 274 kts 121°
2026-05-04 15:36 52.30167 4.25201 5118 ft 271 kts 120°
2026-05-04 15:36 52.29231 4.27864 4684 ft 270 kts 121°
2026-05-04 15:37 52.28297 4.30515 4229 ft 268 kts 120°
2026-05-04 15:37 52.27372 4.33139 3900 ft 262 kts 120°
2026-05-04 15:37 52.26487 4.35644 3769 ft 248 kts 120°
2026-05-04 15:37 52.25653 4.37999 3625 ft 237 kts 120°
2026-05-04 15:38 52.24834 4.40314 3378 ft 234 kts 120°
2026-05-04 15:38 52.24019 4.42615 3191 ft 227 kts 120°
2026-05-04 15:38 52.23255 4.44770 3065 ft 217 kts 120°
2026-05-04 15:38 52.22511 4.46867 2933 ft 210 kts 120°
2026-05-04 15:39 52.21800 4.48875 2780 ft 201 kts 119°
2026-05-04 15:39 52.21214 4.50926 2447 ft 199 kts 103°
2026-05-04 15:39 52.21674 4.54990 2082 ft 175 kts 56°
2026-05-04 15:40 52.22311 4.56625 2012 ft 168 kts 55°
2026-05-04 15:40 52.22924 4.58209 2008 ft 164 kts 55°
2026-05-04 15:40 52.23531 4.59780 1927 ft 163 kts 55°
2026-05-04 15:40 52.24136 4.61345 1756 ft 163 kts 55°
2026-05-04 15:41 52.24738 4.62902 1543 ft 162 kts 54°
2026-05-04 15:41 52.25322 4.64418 1329 ft 148 kts 54°
2026-05-04 15:41 52.25837 4.65755 1116 ft 132 kts 53°
2026-05-04 15:41 52.26304 4.66971 927 ft 123 kts 53°
2026-05-04 15:42 52.26757 4.68152 777 ft 122 kts 53°
2026-05-04 15:42 52.27204 4.69329 665 ft 123 kts 54°
2026-05-04 15:42 52.27651 4.70496 514 ft 123 kts 55°
2026-05-04 15:42 52.28123 4.71691 334 ft 123 kts 56°
2026-05-04 15:43 52.28567 4.72851 161 ft 122 kts 57°
2026-05-04 15:43 52.29020 4.74013 35 ft 121 kts 56°
2026-05-04 15:43 52.29432 4.75079 1 ft 97 kts 57°
2026-05-04 15:43 52.29797 4.76089 204 ft 116 kts 58°
2026-05-04 15:44 52.30242 4.77335 781 ft 136 kts 56°
2026-05-04 15:44 52.30741 4.78728 1394 ft 148 kts 57°
2026-05-04 15:44 52.31322 4.80342 1749 ft 181 kts 56°
2026-05-04 15:44 52.31984 4.82214 1927 ft 196 kts 59°
2026-05-04 15:45 52.32200 4.84415 1995 ft 203 kts 98°
2026-05-04 15:45 52.31514 4.86548 2001 ft 225 kts 134°
2026-05-04 15:45 52.30136 4.87773 1999 ft 231 kts 169°
2026-05-04 15:45 52.28531 4.87920 2014 ft 231 kts 181°
2026-05-04 15:46 52.26922 4.87848 2010 ft 233 kts 183°
2026-05-04 15:46 52.25295 4.87765 2009 ft 234 kts 183°
2026-05-04 15:46 52.23682 4.87678 2005 ft 228 kts 182°
2026-05-04 15:46 52.22146 4.87585 2003 ft 214 kts 183°
2026-05-04 15:47 52.20682 4.87500 2008 ft 214 kts 183°
2026-05-04 15:47 52.19118 4.87414 2012 ft 231 kts 183°
2026-05-04 15:47 52.17500 4.87328 2010 ft 234 kts 182°
2026-05-04 15:47 52.15873 4.87235 2008 ft 233 kts 182°
2026-05-04 15:48 52.14276 4.87104 2002 ft 233 kts 187°
2026-05-04 15:48 52.12806 4.86120 2002 ft 230 kts 221°
2026-05-04 15:48 52.11850 4.81488 2015 ft 225 kts 279°
2026-05-04 15:49 52.12123 4.79000 2008 ft 220 kts 283°
2026-05-04 15:49 52.12414 4.76607 2006 ft 213 kts 282°
2026-05-04 15:49 52.12700 4.74268 2007 ft 209 kts 283°
2026-05-04 15:49 52.12977 4.71942 2009 ft 209 kts 283°
2026-05-04 15:50 52.13253 4.69623 2007 ft 209 kts 282°
2026-05-04 15:50 52.13541 4.67297 2005 ft 210 kts 283°
2026-05-04 15:50 52.13824 4.65013 2021 ft 200 kts 282°
2026-05-04 15:50 52.14097 4.62817 2007 ft 196 kts 283°
2026-05-04 15:51 52.14359 4.60655 2006 ft 194 kts 283°
2026-05-04 15:51 52.14636 4.58519 2001 ft 192 kts 289°
2026-05-04 15:51 52.15423 4.56865 1997 ft 184 kts 329°
2026-05-04 15:51 52.16647 4.56492 2000 ft 182 kts
2026-05-04 15:52 52.17794 4.57350 2012 ft 183 kts 31°
2026-05-04 15:52 52.18860 4.58466 2006 ft 179 kts 32°
2026-05-04 15:52 52.19854 4.59546 1999 ft 166 kts 32°
2026-05-04 15:52 52.20863 4.60385 2004 ft 162 kts 17°
2026-05-04 15:53 52.21938 4.60867 2006 ft 160 kts 13°
2026-05-04 15:53 52.23016 4.61303 2003 ft 159 kts 12°
2026-05-04 15:53 52.24063 4.61888 1846 ft 162 kts 28°
2026-05-04 15:53 52.24845 4.63176 1568 ft 161 kts 53°
2026-05-04 15:54 52.25408 4.64638 1320 ft 142 kts 54°
2026-05-04 15:54 52.25914 4.65949 1116 ft 132 kts 55°
2026-05-04 15:54 52.26391 4.67187 939 ft 128 kts 53°
2026-05-04 15:54 52.26863 4.68414 784 ft 128 kts 53°
2026-05-04 15:55 52.27334 4.69639 602 ft 125 kts 54°
2026-05-04 15:55 52.27790 4.70821 452 ft 125 kts 56°
2026-05-04 15:55 52.28253 4.72007 276 ft 122 kts 56°
2026-05-04 15:55 52.28701 4.73180 142 ft 122 kts 57°
2026-05-04 15:56 52.29146 4.74339 6 ft 114 kts 56°
2026-05-04 15:56 52.29480 4.75207 -3 ft 54 kts 58°
2026-05-04 15:56 52.29616 4.75356 -1 ft 21 kts 348°
2026-05-04 15:56 52.29749 4.75275 -1 ft 21 kts 356°
2026-05-04 15:57 52.29865 4.75153 -1 ft 22 kts 311°
2026-05-04 15:57 52.29967 4.74962 -1 ft 23 kts 311°
2026-05-04 15:57 52.30075 4.74763 1 ft 23 kts 311°
2026-05-04 15:57 52.30172 4.74584 10 ft 20 kts 311°
2026-05-04 15:58 52.30269 4.74405 10 ft 22 kts 311°
2026-05-04 15:58 52.30393 4.74204 -1 ft 27 kts 340°
2026-05-04 15:58 52.30578 4.74208 -1 ft 26 kts
2026-05-04 15:58 52.30760 4.74224 -1 ft 27 kts
2026-05-04 15:59 52.30947 4.74243 -1 ft 27 kts
2026-05-04 15:59 52.31138 4.74261 -1 ft 27 kts
2026-05-04 15:59 52.31311 4.74276 -1 ft 20 kts
2026-05-04 15:59 52.31392 4.74348 -1 ft 12 kts 85°
2026-05-04 16:00 52.31395 4.74494 -1 ft 14 kts 86°
2026-05-04 16:00 52.31400 4.74661 -1 ft 16 kts 87°
2026-05-04 16:00 52.31406 4.74848 -1 ft 17 kts 86°
2026-05-04 16:00 52.31412 4.75052 -1 ft 19 kts 86°
2026-05-04 16:01 52.31418 4.75248 -1 ft 16 kts 87°
2026-05-04 16:01 52.31420 4.75401 -1 ft 11 kts 105°
2026-05-04 16:01 52.31348 4.75422 -1 ft 11 kts 182°
2026-05-04 16:01 52.31271 4.75453 -1 ft 12 kts 171°
2026-05-04 16:02 52.31195 4.75462 -1 ft 9 kts 177°
2026-05-04 16:02 52.31140 4.75495 -1 ft 7 kts 149°
2026-05-04 16:02 52.31107 4.75529 -1 ft 1 kts 147°
2026-05-04 16:03 52.31094 4.75543 -1 ft 3 kts 147°
2026-05-04 16:03 52.31077 4.75561 -1 ft 2 kts 148°
2026-05-04 16:03 52.31067 4.75572 -1 ft 2 kts 148°
2026-05-04 16:03 52.31065 4.75573 -1 ft 0 kts 148°